Language: 


Des rapports , des résumés tant et plus, au choix de chacun....


Données statistiques de la station
Quotidien Rapport Octobre 25, 2017 Unités:  Anglais    Métrique   les deux
« Précédent Jour
Suivant Jour »
Quotidien Hebdomadaire Mensuel Annuel Actuel
  Haut: Bas: Moyen:
Température: 63.5 °F 32 °F 60.4 °F
Pt de rosée: 60.8 °F 57.2 °F 59.4 °F
Humidité: 98 % 0 % 95 %
Vitesse du vent: 12.5 mph 0 mph 5.3 mph
Rafales: 15.2 mph - -
Vent:- - SW
Pression: 30.3 in 0 in -
Précipitation: 0.01 in    
Historical Graphs
 
 
Données statistiques pour Octobre 25, 2017
Heure Température Point de rosée Pression Vent Vitesse du vent Refales Humidité Pluie (taux horaire)
00:04 61.7 °F 60.8 °F 30.2 in Calm   5.4 mph 97 % 0 in
00:09 61.7 °F 60.8 °F 30.2 in SW 2.9 mph 6.3 mph 97 % 0 in
00:14 61.7 °F 60.8 °F 30.2 in SW 5.6 mph 6.3 mph 97 % 0 in
00:15 61.7 °F 60.8 °F 30.2 in SW 3.1 mph 6.3 mph 97 % 0 in
00:20 61.7 °F 60.8 °F 30.2 in SW 5.6 mph 7.4 mph 97 % 0 in
00:25 61.7 °F 60.8 °F 30.2 in South 4 mph 8.7 mph 97 % 0 in
00:26 61.7 °F 60.8 °F 30.2 in SW 5.8 mph 8.7 mph 97 % 0 in
00:31 61.9 °F 60.8 °F 30.1 in SSW 4 mph 8.7 mph 97 % 0 in
00:36 61.9 °F 60.8 °F 30.1 in SW 4.9 mph 7.8 mph 97 % 0 in
00:41 61.9 °F 60.8 °F 30.1 in SW 4.9 mph 6.3 mph 97 % 0 in
00:46 61.9 °F 60.8 °F 30.1 in SW 6 mph 6.3 mph 97 % 0 in
00:51 61.9 °F 60.8 °F 30.1 in Calm   6.3 mph 97 % 0 in
00:56 61.9 °F 60.8 °F 30.1 in South 5.8 mph 7.8 mph 97 % 0 in
01:01 61.9 °F 60.8 °F 30.1 in SSW 6.7 mph 7.8 mph 97 % 0 in
01:06 61.9 °F 60.8 °F 30.1 in South 5.8 mph 7.8 mph 97 % 0 in
01:11 62.1 °F 60.8 °F 30.1 in SSW 6.5 mph 7.8 mph 96 % 0 in
01:16 61.9 °F 60.8 °F 30.1 in South 5.6 mph 6.5 mph 96 % 0 in
01:21 61.9 °F 60.8 °F 30.1 in SSW 6.3 mph 8.1 mph 96 % 0 in
01:26 61.9 °F 60.8 °F 30.1 in SSW 4.3 mph 8.5 mph 96 % 0 in
01:31 61.7 °F 60.8 °F 30.1 in SW 7.8 mph 8.5 mph 96 % 0 in
01:36 61.7 °F 60.8 °F 30.1 in South 7.2 mph 8.5 mph 96 % 0 in
01:41 61.7 °F 60.8 °F 30.1 in SSW 9.8 mph 10.7 mph 96 % 0 in
01:46 61.7 °F 60.8 °F 30.1 in SW 10.1 mph 10.7 mph 96 % 0 in
01:52 61.7 °F 60.8 °F 30.1 in SSW 6.5 mph 10.3 mph 96 % 0 in
02:02 61.5 °F 60.8 °F 30.1 in WSW 8.1 mph 8.7 mph 96 % 0 in
02:07 61.3 °F 60.8 °F 30.1 in SW 4.9 mph 8.7 mph 96 % 0 in
02:12 61.3 °F 60.8 °F 30.1 in SW 5.6 mph 8.7 mph 96 % 0 in
02:17 61.2 °F 60.8 °F 30.1 in SSW 7.4 mph 8.7 mph 96 % 0 in
02:22 61.2 °F 60.8 °F 30.1 in SW 5.8 mph 8.7 mph 96 % 0 in
02:27 61.2 °F 60.8 °F 30.1 in SW 6.3 mph 8.7 mph 96 % 0 in
02:32 61 °F 60.8 °F 30.1 in SW 4.9 mph 8.7 mph 96 % 0 in
02:37 60.8 °F 60.8 °F 30.1 in SW 5.4 mph 7.8 mph 96 % 0 in
02:42 60.6 °F 60.8 °F 30.1 in WSW 5.8 mph 7.8 mph 96 % 0 in
02:47 60.6 °F 60.8 °F 30.1 in SW 5.6 mph 7.4 mph 96 % 0 in
02:52 60.6 °F 60.8 °F 30.1 in SW 7.8 mph 8.7 mph 97 % 0 in
02:57 60.4 °F 59 °F 30.1 in SW 8.1 mph 8.7 mph 97 % 0 in
03:02 32 °F 59 °F 30.1 in SW 7.2 mph 7.2 mph 0 % 0 in
03:07 60.4 °F 59 °F 30.1 in SW 7.6 mph 9.8 mph 96 % 0 in
03:12 60.6 °F 60.8 °F 30.1 in SSW 6 mph 12.1 mph 96 % 0 in
03:17 60.6 °F 60.8 °F 30.1 in SSW 5.8 mph 12.1 mph 96 % 0 in
03:22 60.6 °F 60.8 °F 30.1 in SW 4 mph 8.7 mph 96 % 0 in
03:27 60.6 °F 60.8 °F 30.1 in SSW 6.5 mph 8.7 mph 96 % 0 in
03:32 60.4 °F 59 °F 30.1 in SW 6.5 mph 8.7 mph 96 % 0 in
03:37 60.4 °F 59 °F 30.1 in SW 6.5 mph 9.8 mph 96 % 0 in
03:42 60.4 °F 59 °F 30.1 in SSW 6.3 mph 9.8 mph 96 % 0 in
03:47 60.3 °F 59 °F 30.1 in SW 8.1 mph 11.4 mph 96 % 0 in
03:52 60.3 °F 59 °F 30.1 in SSW 8.1 mph 11.4 mph 96 % 0 in
03:57 60.4 °F 59 °F 30.1 in SW 7.4 mph 9.4 mph 96 % 0 in
04:02 60.3 °F 59 °F 30.1 in SSW 7.4 mph 9.4 mph 96 % 0 in
04:07 60.3 °F 59 °F 30.1 in SSW 4.9 mph 9.8 mph 96 % 0 in
04:12 60.3 °F 59 °F 30.1 in SSW 7.8 mph 10.7 mph 96 % 0 in
04:17 60.3 °F 59 °F 30.1 in SW 7.6 mph 10.7 mph 96 % 0 in
04:22 60.3 °F 59 °F 30.1 in SW 6.7 mph 11 mph 96 % 0 in
04:27 60.3 °F 59 °F 30.1 in SW 7.8 mph 11 mph 95 % 0 in
04:32 60.3 °F 59 °F 30.1 in SW 10.1 mph 10.1 mph 95 % 0 in
04:37 60.1 °F 59 °F 30.1 in SW 7.6 mph 10.5 mph 95 % 0 in
04:42 60.1 °F 59 °F 30.1 in WSW 9.6 mph 10.5 mph 95 % 0 in
04:47 60.1 °F 59 °F 30.1 in WSW 7.8 mph 10.5 mph 95 % 0 in
04:53 59.9 °F 59 °F 30.1 in WSW 7.8 mph 8.9 mph 95 % 0 in
04:58 59.9 °F 59 °F 30.1 in SW 10.5 mph 10.5 mph 95 % 0 in
05:03 59.9 °F 59 °F 30.1 in SW 6 mph 10.5 mph 95 % 0 in
05:08 59.9 °F 59 °F 30.1 in SW 9.2 mph 10.5 mph 95 % 0 in
05:13 59.7 °F 59 °F 30.1 in SSW 7.2 mph 10.5 mph 95 % 0 in
05:18 59.7 °F 59 °F 30.1 in SSW 4.9 mph 8.7 mph 95 % 0 in
05:23 59.9 °F 59 °F 30.1 in SW 6.5 mph 10.3 mph 95 % 0 in
05:28 59.7 °F 59 °F 30.1 in SSW 5.6 mph 10.3 mph 95 % 0 in
05:33 59.9 °F 59 °F 30.1 in SW 5.4 mph 8.5 mph 95 % 0 in
05:38 59.9 °F 59 °F 30.1 in South 5.6 mph 8.5 mph 95 % 0 in
05:43 59.9 °F 59 °F 30.1 in WSW 5.4 mph 10.3 mph 95 % 0 in
05:48 60.1 °F 59 °F 30.1 in SW 7.4 mph 10.3 mph 95 % 0 in
05:53 59.9 °F 59 °F 30.1 in SW 4.3 mph 8.5 mph 95 % 0 in
05:58 59.9 °F 59 °F 30.1 in SSW 7.2 mph 7.8 mph 95 % 0 in
06:03 59.9 °F 59 °F 30.1 in SW 8.1 mph 8.5 mph 95 % 0 in
06:08 59.9 °F 59 °F 30.1 in SW 7.2 mph 8.5 mph 95 % 0 in
06:13 59.9 °F 59 °F 30.1 in SW 7.4 mph 8.1 mph 95 % 0 in
06:18 59.9 °F 59 °F 30.1 in SW 7.4 mph 7.8 mph 95 % 0 in
06:23 59.9 °F 59 °F 30.1 in SSW 5.8 mph 10.5 mph 95 % 0 in
06:28 59.9 °F 59 °F 30.1 in WSW 5.6 mph 10.5 mph 95 % 0 in
06:33 59.9 °F 59 °F 30.1 in SW 6.5 mph 8.5 mph 95 % 0 in
06:38 59.9 °F 59 °F 30.1 in SSW 5.6 mph 8.5 mph 95 % 0 in
06:43 59.7 °F 59 °F 30.1 in SW 7.4 mph 7.8 mph 95 % 0 in
06:48 59.7 °F 59 °F 30.1 in SW 6.5 mph 7.4 mph 95 % 0 in
06:53 59.7 °F 59 °F 30.1 in SSW 5.4 mph 7.6 mph 95 % 0 in
06:58 59.7 °F 59 °F 30.1 in SW 5.6 mph 7.8 mph 95 % 0 in
07:03 59.4 °F 59 °F 30.1 in WSW 7.2 mph 7.8 mph 95 % 0 in
07:08 59.4 °F 59 °F 30.1 in SSW 5.8 mph 7.8 mph 95 % 0 in
07:13 59.4 °F 59 °F 30.1 in SW 7.2 mph 8.1 mph 95 % 0 in
07:18 59.2 °F 57.2 °F 30.1 in WSW 7.8 mph 8.7 mph 95 % 0 in
07:23 59.2 °F 57.2 °F 30.1 in SW 7.4 mph 8.7 mph 95 % 0 in
07:28 59.2 °F 57.2 °F 30.1 in SW 5.6 mph 8.1 mph 95 % 0 in
07:33 59 °F 57.2 °F 30.1 in SW 8.7 mph 8.7 mph 95 % 0 in
07:38 58.8 °F 59 °F 30.1 in WSW 5.4 mph 8.7 mph 96 % 0 in
07:44 58.8 °F 59 °F 30.1 in SW 6.5 mph 12.1 mph 96 % 0 in
07:49 58.8 °F 59 °F 30.1 in SSW 6.5 mph 8.5 mph 96 % 0 in
07:54 58.6 °F 57.2 °F 30.1 in SSW 5.6 mph 8.7 mph 96 % 0 in
07:59 58.5 °F 57.2 °F 30.1 in SSW 4.9 mph 8.7 mph 96 % 0 in
08:04 58.3 °F 57.2 °F 30.1 in WSW 5.4 mph 8.5 mph 96 % 0 in
08:09 58.3 °F 57.2 °F 30.1 in WSW 6 mph 8.5 mph 96 % 0 in
08:14 58.3 °F 57.2 °F 30.1 in SW 7.6 mph 7.8 mph 96 % 0 in
08:19 58.3 °F 57.2 °F 0 in WSW 6.3 mph 7 mph 97 % 0 in
08:24 58.1 °F 57.2 °F 30.1 in SW 6.7 mph 8.5 mph 96 % 0 in
08:29 58.1 °F 57.2 °F 30.1 in SW 6.5 mph 11 mph 97 % 0 in
08:34 58.1 °F 57.2 °F 30.1 in SSW 9.8 mph 9.8 mph 97 % 0 in
08:39 58.3 °F 57.2 °F 30.1 in SW 6.9 mph 9.8 mph 97 % 0 in
08:44 58.1 °F 57.2 °F 30.1 in SSW 8.7 mph 10.1 mph 97 % 0 in
08:49 58.1 °F 57.2 °F 30.1 in SW 5.6 mph 10.1 mph 97 % 0 in
08:54 58.1 °F 57.2 °F 30.1 in SW 5.8 mph 9.4 mph 97 % 0 in
08:59 57.9 °F 57.2 °F 30.1 in SW 4.3 mph 7.4 mph 97 % 0 in
09:04 57.9 °F 57.2 °F 30.1 in SW 3.6 mph 5.3 mph 97 % 0 in
09:09 58.1 °F 57.2 °F 30.1 in WSW 6.3 mph 7.6 mph 97 % 0 in
09:14 58.1 °F 57.2 °F 30.1 in South 2.7 mph 7.6 mph 97 % 0.01 in
09:19 58.1 °F 57.2 °F 30.1 in SW 4.9 mph 5.6 mph 97 % 0.01 in
09:24 58.1 °F 57.2 °F 30.1 in SW 5.4 mph 5.6 mph 97 % 0.01 in
09:29 58.1 °F 57.2 °F 30.1 in WSW 3.6 mph 6.3 mph 97 % 0.01 in
09:34 58.1 °F 57.2 °F 30.1 in SSW 6.3 mph 6.5 mph 97 % 0.01 in
09:39 58.1 °F 57.2 °F 30.1 in SSW 7.2 mph 8.5 mph 97 % 0.01 in
09:44 58.3 °F 57.2 °F 30.1 in SSW 5.4 mph 11 mph 97 % 0.01 in
09:49 58.5 °F 57.2 °F 30.1 in SW 4.9 mph 11 mph 97 % 0.01 in
09:54 58.6 °F 57.2 °F 30.1 in WSW 5.4 mph 7.8 mph 97 % 0.01 in
09:59 58.6 °F 57.2 °F 30.1 in WSW 3.8 mph 7.4 mph 97 % 0.01 in
10:04 58.6 °F 57.2 °F 30.2 in SW 5.8 mph 6.5 mph 97 % 0.01 in
10:09 59.2 °F 59 °F 30.2 in SSW 5.8 mph 7.4 mph 97 % 0.01 in
10:15 59.5 °F 59 °F 30.2 in SW 5.4 mph 8.1 mph 96 % 0 in
10:20 59.9 °F 59 °F 30.2 in WSW 6 mph 9.6 mph 96 % 0 in
10:25 60.3 °F 59 °F 30.2 in SSW 5.6 mph 9.6 mph 96 % 0 in
10:30 60.4 °F 59 °F 30.2 in SW 5.4 mph 8.5 mph 96 % 0 in
10:35 60.4 °F 59 °F 30.2 in WSW 7.4 mph 8.1 mph 95 % 0 in
10:40 60.6 °F 59 °F 30.2 in WSW 6 mph 10.5 mph 95 % 0 in
10:45 61 °F 59 °F 30.2 in WSW 6.5 mph 10.5 mph 94 % 0 in
10:50 61.2 °F 59 °F 30.2 in WSW 6.5 mph 12.3 mph 93 % 0 in
10:55 61.7 °F 60.8 °F 30.2 in WSW 7.6 mph 13.2 mph 93 % 0 in
11:00 62.1 °F 60.8 °F 30.2 in WSW 12.5 mph 13.2 mph 93 % 0 in
11:05 62.1 °F 59 °F 30.2 in WSW 9.6 mph 12.8 mph 91 % 0 in
11:10 62.2 °F 59 °F 30.2 in WSW 10.3 mph 12.8 mph 90 % 0 in
11:15 62.4 °F 59 °F 30.2 in WSW 9.6 mph 13.4 mph 90 % 0 in
11:20 62.4 °F 59 °F 30.2 in WSW 12.1 mph 15.2 mph 88 % 0 in
11:25 62.2 °F 59 °F 30.2 in WSW 9.6 mph 15.2 mph 87 % 0 in
11:30 62.4 °F 59 °F 30.1 in WSW 7.4 mph 15.2 mph 87 % 0 in
11:35 63 °F 59 °F 30.1 in WSW 8.5 mph 14.5 mph 87 % 0 in
11:40 63.1 °F 59 °F 30.1 in West 8.1 mph 13.2 mph 87 % 0 in
11:45 63.5 °F 60.8 °F 30.1 in West 9.8 mph 13.2 mph 87 % 0 in
11:50 63.1 °F 59 °F 30.1 in West 8.9 mph 11 mph 86 % 0 in
11:55 63.1 °F 59 °F 30.1 in West 5.6 mph 11 mph 86 % 0 in
12:00 63 °F 59 °F 30.2 in West 11 mph 12.3 mph 85 % 0 in
12:05 62.6 °F 59 °F 30.2 in WSW 9.8 mph 12.3 mph 86 % 0 in
12:10 62.2 °F 57.2 °F 30.2 in WSW 7.8 mph 12.8 mph 86 % 0 in
12:16 61.9 °F 57.2 °F 30.2 in West 6.5 mph 12.8 mph 86 % 0 in
12:21 61.9 °F 59 °F 30.2 in WSW 8.9 mph 11.2 mph 87 % 0 in
12:26 61.9 °F 59 °F 30.2 in WSW 6.5 mph 10.5 mph 88 % 0 in
12:31 62.1 °F 59 °F 30.2 in WSW 7.4 mph 10.5 mph 89 % 0 in
12:36 62.1 °F 59 °F 30.2 in WSW 7.6 mph 10.5 mph 89 % 0 in
12:41 62.1 °F 59 °F 30.2 in WSW 8.1 mph 10.5 mph 89 % 0 in
12:46 62.1 °F 59 °F 30.2 in WSW 5.4 mph 10.5 mph 89 % 0 in
12:51 62.2 °F 59 °F 30.2 in West 6.9 mph 10.3 mph 89 % 0 in
12:56 62.2 °F 59 °F 30.2 in West 6 mph 10.3 mph 89 % 0 in
13:01 62.2 °F 59 °F 30.2 in WSW 6 mph 8.7 mph 90 % 0 in
13:06 62.6 °F 59 °F 30.2 in WSW 6.5 mph 7.8 mph 90 % 0 in
13:11 62.6 °F 59 °F 30.2 in WSW 7.6 mph 8.7 mph 89 % 0 in
13:16 62.6 °F 59 °F 30.2 in WSW 9.2 mph 10.1 mph 89 % 0 in
13:21 62.4 °F 59 °F 30.2 in WSW 6.5 mph 11 mph 89 % 0 in
13:26 62.4 °F 59 °F 30.2 in WSW 4.3 mph 11 mph 89 % 0 in
13:31 62.6 °F 59 °F 30.2 in WSW 6 mph 7.8 mph 90 % 0 in
13:36 62.6 °F 59 °F 30.2 in SW 7.6 mph 7.6 mph 90 % 0 in
13:41 62.8 °F 59 °F 30.2 in WSW 6 mph 8.5 mph 90 % 0 in
13:46 62.8 °F 59 °F 30.2 in West 6 mph 8.5 mph 90 % 0 in
13:51 63 °F 60.8 °F 30.2 in WSW 5.6 mph 8.5 mph 90 % 0 in
13:56 63 °F 60.8 °F 30.2 in WSW 7.2 mph 8.5 mph 90 % 0 in
14:01 63 °F 60.8 °F 30.2 in WSW 7.4 mph 7.6 mph 90 % 0 in
14:06 63 °F 60.8 °F 30.2 in West 7.8 mph 9.8 mph 90 % 0 in
14:11 63 °F 60.8 °F 30.2 in WSW 7.8 mph 9.8 mph 89 % 0 in
14:16 63 °F 60.8 °F 30.2 in West 6.3 mph 10.3 mph 89 % 0 in
14:21 63 °F 60.8 °F 30.2 in Calm   11 mph 89 % 0 in
14:26 63 °F 60.8 °F 30.2 in WSW 10.5 mph 11 mph 89 % 0 in
14:32 63.1 °F 60.8 °F 30.2 in West 9.2 mph 12.8 mph 89 % 0 in
14:37 63.1 °F 60.8 °F 30.2 in West 10.1 mph 12.8 mph 89 % 0 in
14:42 63.1 °F 60.8 °F 30.2 in West 6 mph 10.5 mph 89 % 0 in
14:47 63.1 °F 60.8 °F 30.2 in WSW 8.5 mph 10.5 mph 89 % 0 in
14:57 63.1 °F 60.8 °F 30.2 in WSW 7.6 mph 8.5 mph 90 % 0 in
15:02 63.1 °F 60.8 °F 30.2 in WSW 8.1 mph 10.7 mph 90 % 0 in
15:07 63.1 °F 60.8 °F 30.2 in West 5.6 mph 10.7 mph 90 % 0 in
15:12 63.3 °F 60.8 °F 30.2 in West 5.8 mph 9.2 mph 90 % 0 in
15:17 63.1 °F 60.8 °F 30.2 in West 6.3 mph 9.8 mph 90 % 0 in
15:22 63.3 °F 60.8 °F 30.2 in West 7.4 mph 9.8 mph 90 % 0 in
15:27 63.1 °F 60.8 °F 30.2 in West 6.5 mph 8.9 mph 89 % 0 in
15:32 63.1 °F 60.8 °F 30.2 in WSW 7.6 mph 8.7 mph 90 % 0 in
15:37 63 °F 60.8 °F 30.2 in West 2.9 mph 8.7 mph 90 % 0 in
15:42 62.6 °F 60.8 °F 30.2 in WSW 11 mph 11 mph 91 % 0 in
15:47 62.4 °F 60.8 °F 30.2 in WSW 8.7 mph 11.9 mph 91 % 0 in
15:52 62.2 °F 59 °F 30.2 in WSW 7.6 mph 11.9 mph 92 % 0 in
15:58 62.2 °F 59 °F 30.2 in West 6.5 mph 10.7 mph 92 % 0 in
16:03 62.2 °F 59 °F 30.2 in WSW 6.5 mph 10.7 mph 92 % 0 in
16:08 62.2 °F 60.8 °F 30.2 in WSW 7.6 mph 11.9 mph 93 % 0 in
16:13 62.4 °F 60.8 °F 30.2 in WSW 5.8 mph 11.9 mph 93 % 0 in
16:18 62.6 °F 60.8 °F 30.2 in SW 6 mph 10.7 mph 93 % 0 in
16:23 62.6 °F 60.8 °F 30.2 in WSW 8.1 mph 10.7 mph 93 % 0 in
16:28 62.4 °F 60.8 °F 30.2 in WSW 9.6 mph 10.7 mph 93 % 0 in
16:33 62.2 °F 60.8 °F 30.2 in WSW 6 mph 9.8 mph 93 % 0 in
16:38 62.1 °F 60.8 °F 30.2 in SW 6 mph 9.8 mph 93 % 0 in
16:43 62.1 °F 60.8 °F 30.2 in SW 5.4 mph 7.8 mph 94 % 0 in
16:48 61.9 °F 60.8 °F 30.2 in WSW 3.1 mph 7.6 mph 94 % 0 in
16:53 61.7 °F 60.8 °F 30.2 in WSW 3.8 mph 7.6 mph 94 % 0 in
16:58 61.5 °F 59 °F 30.2 in WSW 7.8 mph 7.8 mph 94 % 0 in
17:03 61.5 °F 59 °F 30.2 in SSW 4.9 mph 7.8 mph 94 % 0 in
17:08 61.3 °F 60.8 °F 30.2 in SW 4.9 mph 7.8 mph 95 % 0 in
17:18 61.2 °F 60.8 °F 30.2 in SSW 7.2 mph 7.4 mph 95 % 0 in
17:23 61 °F 59 °F 30.2 in SW 4.9 mph 8.1 mph 95 % 0 in
17:28 61 °F 59 °F 30.2 in SSW 5.6 mph 8.1 mph 95 % 0 in
17:33 60.8 °F 60.8 °F 30.2 in SW 6.3 mph 8.5 mph 96 % 0 in
17:38 60.8 °F 60.8 °F 30.2 in WSW 5.4 mph 8.5 mph 96 % 0 in
17:43 60.6 °F 60.8 °F 30.2 in WSW 2 mph 7.2 mph 96 % 0 in
17:48 60.6 °F 60.8 °F 30.2 in WSW 4.3 mph 6.5 mph 96 % 0 in
17:53 60.6 °F 60.8 °F 30.2 in SSW 4 mph 7.8 mph 97 % 0 in
17:58 60.4 °F 59 °F 30.2 in SW 4.9 mph 7.8 mph 97 % 0 in
18:03 60.4 °F 59 °F 30.2 in WSW 5.6 mph 6.5 mph 97 % 0 in
18:08 60.4 °F 59 °F 30.2 in SW 3.8 mph 7.2 mph 97 % 0 in
18:12 60.3 °F 59 °F 30.2 in SW 2.9 mph 7.2 mph 97 % 0 in
18:17 60.3 °F 59 °F 30.2 in SW 3.6 mph 6.7 mph 97 % 0 in
18:22 60.1 °F 59 °F 30.2 in SW 4 mph 6.7 mph 97 % 0 in
18:27 60.1 °F 59 °F 30.2 in Calm   5.6 mph 97 % 0 in
18:32 60.1 °F 59 °F 30.2 in WSW 2.7 mph 4.9 mph 97 % 0 in
18:37 60.1 °F 59 °F 30.2 in WSW 5.6 mph 6.7 mph 97 % 0 in
18:42 59.9 °F 59 °F 30.2 in WSW 5.8 mph 6.7 mph 97 % 0 in
18:47 59.9 °F 60.8 °F 30.2 in Calm   6.5 mph 98 % 0 in
18:52 59.9 °F 60.8 °F 30.2 in Calm   5.6 mph 98 % 0 in
18:57 59.9 °F 60.8 °F 30.2 in Calm   5.6 mph 98 % 0 in
19:02 59.9 °F 60.8 °F 30.2 in SW 4.3 mph 5.8 mph 98 % 0 in
19:07 59.9 °F 60.8 °F 30.2 in WSW 3.6 mph 6 mph 98 % 0 in
19:12 59.9 °F 60.8 °F 30.2 in SW 4 mph 6 mph 98 % 0 in
19:17 59.9 °F 60.8 °F 30.2 in WSW 3.1 mph 6.3 mph 98 % 0 in
19:22 59.7 °F 59 °F 30.2 in WSW 4.3 mph 6.3 mph 98 % 0 in
19:27 59.7 °F 59 °F 30.2 in Calm   6 mph 98 % 0 in
19:32 59.7 °F 59 °F 30.2 in Calm   5.6 mph 98 % 0 in
19:37 59.7 °F 59 °F 30.2 in Calm   4.9 mph 98 % 0 in
19:42 59.7 °F 59 °F 30.2 in Calm   3.4 mph 98 % 0 in
19:47 59.7 °F 59 °F 30.2 in Calm   4.3 mph 98 % 0 in
19:52 59.7 °F 59 °F 30.2 in Calm   6 mph 98 % 0 in
19:57 59.7 °F 59 °F 30.2 in Calm   6 mph 98 % 0 in
20:02 59.7 °F 59 °F 30.2 in SW 2.7 mph 3.4 mph 98 % 0 in
20:07 59.7 °F 59 °F 30.2 in WSW 2.9 mph 2.9 mph 98 % 0 in
20:12 59.7 °F 59 °F 30.2 in Calm   4 mph 98 % 0 in
20:17 59.7 °F 59 °F 30.2 in WSW 1.3 mph 4 mph 98 % 0 in
20:22 59.7 °F 59 °F 30.2 in Calm   3.8 mph 98 % 0 in
20:27 59.7 °F 59 °F 30.2 in Calm   3.8 mph 98 % 0 in
20:32 59.7 °F 59 °F 30.2 in Calm     98 % 0 in
20:38 59.7 °F 59 °F 30.2 in Calm     98 % 0 in
20:43 59.5 °F 59 °F 30.2 in Calm   4.9 mph 98 % 0 in
20:48 59.5 °F 59 °F 30.2 in Calm   4.9 mph 98 % 0 in
20:53 59.5 °F 59 °F 30.2 in Calm   4.3 mph 98 % 0 in
20:58 59.5 °F 59 °F 30.2 in Calm   4.3 mph 98 % 0 in
21:03 59.5 °F 59 °F 30.2 in SSW 3.8 mph 5.6 mph 98 % 0 in
21:08 59.5 °F 59 °F 30.2 in Calm   5.6 mph 98 % 0 in
21:13 59.5 °F 59 °F 30.2 in Calm   5.6 mph 98 % 0 in
21:18 59.5 °F 59 °F 30.2 in WSW 3.1 mph 4.3 mph 98 % 0 in
21:23 59.5 °F 59 °F 30.2 in Calm   4.9 mph 98 % 0 in
21:28 59.5 °F 59 °F 30.2 in Calm   4.9 mph 98 % 0 in
21:33 59.5 °F 59 °F 30.2 in Calm   3.6 mph 98 % 0 in
21:38 59.5 °F 59 °F 30.2 in Calm   3.8 mph 98 % 0 in
21:43 59.5 °F 59 °F 30.2 in Calm   3.8 mph 98 % 0 in
21:48 59.5 °F 59 °F 30.2 in Calm   3.6 mph 98 % 0 in
21:53 59.5 °F 59 °F 30.2 in Calm   3.6 mph 98 % 0 in
21:58 59.5 °F 59 °F 30.2 in WSW 2.7 mph 3.1 mph 98 % 0 in
22:03 59.5 °F 59 °F 30.2 in Calm   4.3 mph 98 % 0 in
22:08 59.5 °F 59 °F 30.2 in Calm   4.3 mph 98 % 0 in
22:14 59.4 °F 59 °F 30.2 in Calm   1.6 mph 98 % 0 in
22:19 59.4 °F 59 °F 30.2 in SW 3.4 mph 4 mph 98 % 0 in
22:24 59.5 °F 59 °F 30.2 in Calm   5.6 mph 98 % 0 in
22:29 59.5 °F 59 °F 30.2 in WSW 4.3 mph 5.8 mph 98 % 0 in
22:34 59.5 °F 59 °F 30.2 in WSW 3.6 mph 8.7 mph 98 % 0 in
22:39 59.5 °F 59 °F 30.2 in SW 6 mph 8.7 mph 98 % 0 in
22:44 59.7 °F 59 °F 30.2 in SW 3.1 mph 6 mph 98 % 0 in
22:49 59.7 °F 59 °F 30.2 in Calm   6 mph 98 % 0 in
22:54 59.7 °F 59 °F 30.2 in WSW 3.4 mph 5.6 mph 98 % 0 in
22:59 59.5 °F 59 °F 30.2 in Calm   5.6 mph 98 % 0 in
23:04 59.5 °F 59 °F 30.2 in Calm   3.8 mph 98 % 0 in
23:09 59.5 °F 59 °F 30.2 in Calm     98 % 0 in
23:14 59.4 °F 59 °F 30.2 in Calm     98 % 0 in
23:19 59.4 °F 59 °F 30.2 in Calm     98 % 0 in
23:24 59.4 °F 59 °F 30.2 in Calm     98 % 0 in
23:31 59.4 °F 59 °F 30.2 in Calm   2.9 mph 98 % 0 in
23:36 59.4 °F 59 °F 30.2 in SW 1.3 mph 3.6 mph 98 % 0 in
23:41 59.4 °F 59 °F 30.2 in Calm   3.6 mph 98 % 0 in
23:46 59.4 °F 59 °F 30.3 in Calm   3.1 mph 98 % 0 in
23:51 59.4 °F 59 °F 30.3 in Calm   2.9 mph 98 % 0 in
23:56 59.4 °F 59 °F 30.3 in Calm     98 % 0 in
Le Gheer Warneton
Courtoisie de Weather Underground - 2.25 mb

Mise a jour : 18/12/2017 03:58:13
Généré par Cumulus 1.9.4 (1099)